sat.trackr.live / text

‹ back to catalog

STARLINK-32628

NORAD 62122 · 2024-222J

PAYLOAD ACTIVE UNKNOWN

§ Identity

Operator
Country
US
Launch date
2024-11-27
Launch site
AFETR
Launch vehicle
Mass (kg)
RCS (m²)

Purposes: comms

External: N2YO · Heavens-Above · Gunter

§ Orbital elements

Epoch: 2026-05-24T22:58:53.465664Z

Period
94.27 min
Inclination
43.0032°
Eccentricity
0.0001207
Mean motion
15.27584659 rev/d
Perigee alt
482.2 km
Apogee alt
483.9 km
Semi-major
6,861.2 km
B*
6.8902e-4
RAAN
65.4225°
Arg perigee
268.2285°
Mean anomaly
91.8428°
Rev number
8,458

§ Raw data

STARLINK-326281 62122U 24222J   26144.95756326  .00018749  00000+0  68902-3 0  99912 62122  43.0032  65.4225 0001207 268.2285  91.8428 15.27584659 84583

JSON: /api/v1/satellites/62122 · /tle

For live sub-satellite position, see the globe view (requires WebGL).

§ Visibility from observer

Set your observer location to see the next 7 days of passes ≥ 10°. The values pass through the URL so the page stays shareable.

No JS? Fill the form by hand. The geolocation button needs JavaScript.